This is the latest recevied weather packets stored in our database for station/object DO7CRZ-12. If no packets are shown the sender has not sent any weather packets the latest 10 day(s).
| Time | Temp. | Humidity | Pressure | Rain* | Wind** | Luminosity | Snow |
|---|---|---|---|---|---|---|---|
| 1777876043 | 16.67° C | 49% | 1013.6 hPa | 0 mm | - | 33 W/m² | - |
| 1777875440 | 16.67° C | 48% | 1013.7 hPa | 0 mm | - | 35 W/m² | - |
| 1777874842 | 16.67° C | 46% | 1013.6 hPa | 0 mm | - | 29 W/m² | - |
| 1777874249 | 17.22° C | 45% | 1013.4 hPa | 0 mm | - | 27 W/m² | - |
| 1777873647 | 17.22° C | 45% | 1013.3 hPa | 0 mm | - | 33 W/m² | - |
| 1777873044 | 17.22° C | 44% | 1013.3 hPa | 0 mm | - | 31 W/m² | - |
| 1777872441 | 17.22° C | 43% | 1013 hPa | 0 mm | - | 28 W/m² | - |
| 1777871235 | 17.22° C | 44% | 1012.9 hPa | 0 mm | - | 29 W/m² | - |
| 1777870647 | 17.22° C | 44% | 1012.8 hPa | 0 mm | - | 29 W/m² | - |
| 1777870045 | 16.67° C | 45% | 1012.8 hPa | 0 mm | - | 25 W/m² | - |
| 1777869442 | 16.67° C | 45% | 1012.9 hPa | 0 mm | - | 20 W/m² | - |
| 1777868838 | 16.67° C | 44% | 1013 hPa | 0 mm | - | 17 W/m² | - |
| 1777868236 | 16.67° C | 45% | 1013 hPa | 0 mm | - | 12 W/m² | - |
| 1777867648 | 16.67° C | 45% | 1013 hPa | 0 mm | - | 8 W/m² | - |
| 1777867045 | 16.11° C | 45% | 1012.9 hPa | 0 mm | - | 5 W/m² | - |
| 1777865840 | 16.67° C | 45% | 1013 hPa | 0 mm | - | 0 W/m² | - |
| 1777865237 | 16.67° C | 44% | 1012.9 hPa | 0 mm | - | 0 W/m² | - |
| 1777864649 | 16.67° C | 44% | 1012.9 hPa | 0 mm | - | 0 W/m² | - |
| 1777864046 | 16.67° C | 44% | 1012.9 hPa | 0 mm | - | 0 W/m² | - |
| 1777863443 | 17.22° C | 42% | 1012.9 hPa | 0 mm | - | 0 W/m² | - |
| 1777862840 | 17.22° C | 42% | 1012.7 hPa | 0 mm | - | 0 W/m² | - |
| 1777861650 | 17.22° C | 42% | 1012.4 hPa | 0 mm | - | 0 W/m² | - |
| 1777861047 | 17.78° C | 41% | 1012.6 hPa | 0 mm | - | 0 W/m² | - |
| 1777860444 | 17.78° C | 41% | 1012.6 hPa | 0 mm | - | 0 W/m² | - |
| 1777859841 | 17.78° C | 40% | 1012.6 hPa | 0 mm | - | 0 W/m² | - |
* Rain latest hour (hover to see other rain measurements)
** Current wind speed in m/s (hover to see current wind gust speed)